Find Starlink 30074

NORAD ID: 57508 Int'l Des: 2023-113 Owner: SPXS Country: US Constellation: starlink operational
LEOCIRCULAR

实时位置

正在加载3D地球...

关于 Starlink 30074

正在加载描述...

即将过境

Passes for default location (London). Set your location on the main map for personalized predictions.

高度历史

Loading altitude history...

两行轨道根数

1 57508U 23113P 26130.02339647 -.00002172 00000-0 -69451-4 0 9994
2 57508 43.0030 29.8291 0001312 270.3570 89.7131 15.27563869152840
Epoch: May 10, 2026 • Age: 11 hours

当前状态

高度 491.1 km
速度 7.62 km/s
星下点 -31.84°S, 52.34°W
发射日期 Aug 7, 2023
运行时间 2.7 years
类型 internet

技术详情

分类 Payload
质量 730.00 kg
干质量 700.00 kg
总质量 730.00 kg
长度 0.30 m
直径 4.10 m
跨度 29.00 m
形状 Box + pan
制造商 SPXS
平台类型 Starlink V2M
阶段状态 In Orbit
所有者/国家 SPXS/US

Most Searched